www.pogodaiklimat.ru

Погода и климат >> Архив погоды >> Россия >> Архангельская область >> Койнас


АРХИВ ПОГОДЫ в Койнасе

Время (UTC), дата Ветер
(напр.,м/с)
 
Видим.   Явления Облачность Т
(С)
Тd
(С)
f
(%)
Тe
(С)
Тes
(С)
Комфортность P
(гПа)
Po
(гПа)
Тmin
(С)
Tmax
(С)
R
(мм)
R24
(мм)
S
(см)
06 16.08 З 4-10
{12}
16 км слаб. ливневой дождь 10/10 400 м
[Cb cap]
+12.0 +9.9 87 +10 +10 1002.6 994.9 +10.9
09 16.08 З 3
{11}
30 км слаб. ливневой дождь 10/8 600 м
[Cb cap Ac As]
+13.3 +11.0 86 +12 +12 1005.2 997.5
12 16.08 З 4 50 км в посл. час ливневой дождь 10/5 600 м
[Cb cap Ac As]
+13.9 +11.7 87 +12 +13 1007.9 1000.3
15 16.08 З 3 50 км {ливн. осадки} 10/5 600 м
[Sc Ac As]
+13.8 +11.5 86 +13 +13 1010.2 1002.5 +14.3 2
18 16.08 ЮЗ 1 50 км 6/6 600 м
[Cb cap]
+12.6 +11.0 90 +13 +13 1011.6 1003.9
21 16.08 ЮЗ 1 50 км 3/0
[Ac As]
+11.8 +10.5 92 +12 +12 1012.8 1005.0
00 17.08 ЮВ 1 50 км 9/0
[Ac As]
+10.6 +10.0 96 +10 +10 1014.4 1006.6
03 17.08 ЮВ 1 40 км {ливн. осадки} 9/3 600 м
[Sc Ac As]
+11.4 +10.6 95 +11 +11 1015.0 1007.2 +9.1 0.5
06 17.08 Ю 1 50 км {ливн. осадки} 9/9 630 м
[Sc]
+14.3 +12.0 86 +15 +15 1015.9 1008.2
09 17.08 ЮЗ 1 50 км в посл. час ливневой дождь 8/5 600 м
[Cb cap Ac As]
+14.1 +12.7 91 +14 +17 1016.7 1008.9
12 17.08 штиль 0 50 км {ливн. осадки} 3/3 600 м
[Cb cap]
+17.3 +13.0 76 +17 +22 1017.8 1010.2
15 17.08 СЗ 3 50 км {ливн. осадки} 3/3 600 м
[Cb cap]
+15.4 +10.8 74 +15 +15 1019.1 1011.4 +17.4 2
18 17.08 З 1 50 км {ливн. осадки} 1/1 600 м
[Cb cap]
+9.3 +8.3 93 +9 +9 1020.7 1012.8
21 17.08 З 1 50 км {ливн. осадки} 6/0
[Ac As]
+6.4 +5.7 95 +5 +5 1021.6 1013.6
00 18.08 З 1 50 км 1/0
[Ac As]
+4.2 +3.5 95 +3 +3 1022.9 1014.9
03 18.08 штиль 0 700 м туман ясно +5.1 +4.6 97 +4 +5 1024.0 1015.9 +2.9
06 18.08 В 1 50 км {туман} ясно +13.5 +9.7 78 +14 +20 1024.2 1016.3
09 18.08 штиль 0 50 км {туман} 1/1 1000 м
[Cu hum]
+18.3 +10.1 59 +19 +28 1023.5 1015.8
12 18.08 В 1 50 км 1/1 1000 м
[Cu hum]
+20.2 +8.9 48 +23 +28 комфорт 1023.2 1015.5
15 18.08 штиль 0 50 км 1/1 1000 м
[Cu hum]
+19.4 +7.8 47 +20 +21 1023.0 1015.3 +20.5
18 18.08 ЮЗ 1 50 км ясно +10.9 +9.1 89 +11 +11 1023.6 1015.7
21 18.08 штиль 0 50 км ясно +7.0 +6.1 94 +6 +6 1023.9 1015.9
00 19.08 штиль 0 2500 м дымка ясно +4.8 +4.1 95 +4 +4 1024.3 1016.2
03 19.08 штиль 0 50 км 8/8 1000 м
[Sc]
+8.9 +8.3 96 +8 +8 1024.1 1016.2 +4.5
06 19.08 ЮВ 1 50 км 1/0
[Ac As]
+15.7 +10.6 72 +16 +22 1022.8 1015.1
09 19.08 ЮВ 3 50 км 1/1 1000 м
[Cu hum]
+22.1 +9.6 45 +24 +30 комфорт 1020.6 1013.0
12 19.08 ЮВ 3 50 км 6/4 1000 м
[Cu Sc Ac As]
+22.8 +9.9 44 +25 +26 комфорт 1019.2 1011.6
15 19.08 ЮВ 1 45 км слаб. дождь 10/0
[Ac As]
+17.1 +12.6 75 +18 +18 1019.5 1011.8 +23.3 0.3
18 19.08 Ю 1 50 км {дождь} 10/5 1000 м
[Sc Ac As]
+15.1 +12.6 85 +16 +16 1018.6 1010.9
21 19.08 штиль 0 50 км {дождь} 9/9 1080 м
[Sc]
+15.1 +12.8 86 +15 +15 1017.9 1010.2
00 20.08 Ю 1 50 км 9/9 870 м
[Sc]
+15.3 +14 +14 1018.0 1010.3
03 20.08 ЮВ 1 50 км 9/9 700 м
[Sc]
+15.8 +13.4 86 +16 +17 1017.9 1010.2 +15.0 0.4
06 20.08 ЮВ 1 50 км 9/9 400 м
[St]
+17.3 +14.1 81 +18 +19 1017.7 1010.1
09 20.08 ЮВ 1 50 км 9/9 500 м
[Sc]
+19.1 +14.5 75 +22 +22 комфорт 1017.5 1009.9
12 20.08 ЮВ 1 50 км 10/8 570 м
[Sc Ac As]
+18.9 +15.0 78 +21 +21 комфорт 1017.6 1010.0
15 20.08 ЮВ 1 50 км 9/0
[Ac As]
+18.9 +15.6 81 +21 +21 комфорт 1017.7 1010.1 +19.5
18 20.08 Ю 1 50 км 9/0
[Ac As Ci fib]
+15.9 +14.7 93 +17 +17 1018.1 1010.4
21 20.08 Ю 1 50 км 9/0
[Ac As]
+15.9 +15.0 94 +17 +17 1017.9 1010.2
00 21.08 ЮВ 1 40 км {ливн. осадки} 9/3 600 м
[Sc Ac As]
+15.2 +14.6 96 +16 +16 1018.0 1010.3
03 21.08 Ю 1 6000 м дымка {туман, ливн. осадки} 10/10 300 м
[St]
+15.3 +14.8 97 +16 +16 1018.3 1010.6 +14.1 1
06 21.08 штиль 0 50 км {туман} 9/9 450 м
[St]
+17.7 +15.8 89 +18 +18 1018.3 1010.7
09 21.08 С 2 50 км {туман} 9/1 1000 м
[Sc diur, vesp Ac As Cs]
+19.2 +14.2 73 +21 +25 комфорт 1018.4 1010.8
12 21.08 СЗ 2 50 км 4/3 1000 м
[Cu med, cong Ci fib]
+21.7 +11.4 52 +24 +27 комфорт 1018.0 1010.4
15 21.08 З 1 50 км 1/1 1000 м
[Cu med, cong]
+19.9 +12.4 62 +23 +23 комфорт 1018.0 1010.4 +22.0
18 21.08 З 2 50 км 8/0
[Ac As]
+16.6 +12.2 75 +17 +17 1018.8 1011.2
21 21.08 штиль 0 50 км 6/0
[Ac As]
+11.6 +10.3 92 +11 +11 1019.1 1011.3
00 22.08 штиль 0 50 км 3/0
[Ac As]
+7.8 +7.1 95 +7 +7 1019.6 1011.6
03 22.08 штиль 0 50 км 8/0
[Ci fib]
+8.5 +7.6 94 +8 +8 1019.4 1011.5 +6.5
06 22.08 В 1 50 км 8/0
[Cc]
+17.2 +12.1 72 +18 +23 1018.1 1010.4
09 22.08 ЮВ 1 50 км 10/3 1000 м
[Cu med, cong Ac As Ci fib]
+20.7 +12.4 59 +24 +27 комфорт 1016.4 1008.9
12 22.08 З 2 25 км слаб. ливневой дождь {гроза} 10/8 1080 м
[Cb cap Ac As Ci fib]
+16.0 +12.4 79 +16 +16 1015.3 1007.6
15 22.08 ЮВ 1 50 км слаб. ливневой дождь {гроза} 10/8 840 м
[Cb cap Ac As]
+15.3 +13.1 87 +16 +16 1013.6 1005.9 +20.9 0.3
18 22.08 ЮЗ 1 17 км слаб. ливневой дождь 10/6 600 м
[Cb cap Ac As]
+12.9 +12.3 96 +13 +13 1012.2 1004.5
21 22.08 штиль 0 7000 м дымка {ливн. осадки} 10/10 210 м
[St]
+12.5 +11.9 96 +12 +12 1010.4 1002.6
00 23.08 З 1 16 км слаб. ливневой дождь 10/8 750 м
[Cb cap Ac As]
+12.0 +11.4 96 +12 +12 1009.4 1001.6
03 23.08 СЗ 4 >70 км {ливн. осадки} 10/9 540 м
[Sc Ac As]
+12.2 +11.1 93 +10 +10 1009.4 1001.7 +11.9 21

 

Местоположение метеостанции Койнас (Архангельская область, Россия): широта 64.75 долгота 47.65 высота над уровнем моря 64 м.

В архиве по умолчанию представлена погода в Койнасе за последнюю неделю. Архивные данные за месяц целиком и за предыдущие месяцы, начиная с января 2011 года, Вы можете получить, выбрав интересующий диапазон дат из раскрывающегося списка и нажав кнопку "Ввод!".


*Определитесь, кто Вы:
робот инопланетянин человек

Внимание! Время в таблицах - всемирное. Для получения местного времени необходимо прибавить поправку, которая равна 3 ч.

Смотрите также архив погоды в соседних городах и на ближайших метеорологических станциях:

Погода в Лешуконском (Архангельская область, Россия) (90 км)
Погода в Мосеево (Архангельская область, Россия) (132 км)
Погода в Вендинге (Коми, Россия) (145 км)
Погода в Кослане (Коми, Россия) (157 км)
Погода в Суре (Архангельская область, Россия) (163 км)
Погода в Карпогорах (Архангельская область, Россия) (176 км)
Погода в Пинеге (Архангельская область, Россия) (201 км)
Погода в Мезене (Архангельская область, Россия) (202 км)
Погода в Нижней Пеше (Ненецкий АО, Россия) (223 км)
Погода в Усть-Цильме (Коми, Россия) (229 км)

Пояснения к столбцам:

Ветер - указаны скорость ветра в м/с - средняя за 10 мин, порывы в срок и между сроками (в фигурных скобках) и направление, откуда дует ветер: С - северный, СВ - северо-восточный, В - восточный, ЮВ - юго-восточный, Ю - южный, ЮЗ - юго-западный, З - западный, СЗ - северо-западный.
Видимость - горизонтальная дальность видимости в метрах или километрах. При видимости от 1 до 10 км при отсутствии осадков обычно наблюдается дымка, при ухудшении видимости до 1 км и менее - туман. В сухую погоду видимость может ухудшаться дымом, пылью или мглою.
Явления - указаны атмосферные явления, наблюдавшиеся в срок или в последний час перед сроком; фигурными скобками обозначены явления, наблюдавшиеся между сроками (за 1-3 часа до срока); квадратными скобками обозначены град или гололедные отложения с указанием их диаметра в мм.
Облачность - указаны через наклонную черту общая и нижняя облачность в баллах и высота нижней границы облаков в метрах; квадратными скобками обозначены формы облаков: Ci - перистые, Cs - перисто-слоистые, Cc - перисто-кучевые, Ac - высококучевые, As - высокослоистые, Sc - слоисто-кучевые, Ns - слоисто-дождевые, Cu - кучевые, Cb - кучево-дождевые. Подробнее классификацию облаков см. в Атласе облаков (PDF).
T - Температура воздуха - температура, измеренная на высоте 2 м над землей.
Td - Температура точки росы - температура, при понижении до которой содержащийся в воздухе водяной пар достигнет насыщения.
f - Относительная влажность воздуха - влажноcть воздуха, измеренная на высоте 2 м над землей.
Te - Эффективная температура - температура, которую ощущает одетый по сезону человек в тени. Характеристика душности погоды. При расчете учитывается влияние влажности воздуха и скорости ветра на теплоощущения человека.
Tes - Эффективная температура на солнце - температура, которую ощущает человек, с поправкой на солнечный нагрев. Характеристика знойности погоды. Зависит от высоты солнца над горизонтом, облачности и скорости ветра. Ночью, в пасмурную погоду, а также при ветре 12 м/с и более поправка равна нулю.
P - Атмосферное давление - приведенное к уровню моря атмосферное давление.
Po - Атмосферное давление - измеренное на уровне метеостанции атмосферное давление.
Tmin - Минимальная температура - минимум температуры воздуха на высоте 2 м над землей.
Tmax - Максимальная температура - максимум температуры воздуха на высоте 2 м над землей.
R - Количество осадков - Количество выпавших осадков за период времени, мм. При наведении курсора мыши на число - период времени, за который выпало указанное количество осадков.
R24 - Количество осадков - Количество выпавших осадков за 24 часа, мм.
S - Снежный покров - Высота снежного покрова, см. При наведении курсора мыши на число - состояние снежного покрова и степень покрытия местности в баллах.